Repton, AL

9:46 PM CST on February 12, 2016 (GMT -0600)
Middleton

Weather History for KGZH - September, 2012

Change the Weather History Date:

Sunday, September 16, 2012

  Actual Average (WUND) Record (WUND)
Temperature  
Mean Temperature 79 °F -  
Max Temperature 90 °F - - (-1)
Min Temperature 69 °F - - (-1)
Cooling Degree Days 14    
Growing Degree Days 29 (Base 50)    
Moisture  
Dew Point 70 °F    
Average Humidity 82    
Maximum Humidity 94    
Minimum Humidity 51    
Precipitation  
Precipitation 0.86 in - - ()
Sea Level Pressure  
Sea Level Pressure 30.03 in    
Wind  
Wind Speed 3 mph (South)    
Max Wind Speed 29 mph    
Max Gust Speed 36 mph    
Visibility 7 miles    
Events Fog , Rain , Thunderstorm    
Averages and records for this station are not official NWS values.
T = Trace of Precipitation, MM = Missing Value Source: NWS Daily Summary

Daily Weather History Graph

Daily Weather History Graph

Search for Another Location

Airport or City:

Trip Planner

Search our weather history database for the weather conditions in past years. The results will help you decide how hot, cold, wet, or windy it might be!

Date:

Astronomy

Sep. 16, 2012 Rise Set
Actual Time 6:33 AM CDT 6:51 PM CDT
Civil Twilight 6:08 AM CDT 7:16 PM CDT
Nautical Twilight 5:40 AM CDT 7:44 PM CDT
Astronomical Twilight 5:11 AM CDT 8:13 PM CDT
Moon 7:05 AM CDT (9/16) 7:05 PM CDT (9/16)
Length of Visible Light 13h 07m
Length of Day
12h 18m
New Moon, 0% of the Moon is Illuminated
Sep 16
New Moon
Sep 22
First Quarter
Sep 29
Full
Oct 8
Last Quarter
Oct 15
New

Hourly Weather History & Observations

Time (CDT) Temp. Heat Index Dew Point Humidity Pressure Visibility Wind Dir Wind Speed Gust Speed Precip Events Conditions
12:53 AM 73.9 °F - 70.0 °F 87% 30.08 in 10.0 mi Calm Calm - N/A   Overcast
1:53 AM 73.9 °F - 70.0 °F 87% 30.07 in 10.0 mi Calm Calm - N/A   Mostly Cloudy
2:53 AM 73.0 °F - 70.0 °F 90% 30.05 in 10.0 mi Calm Calm - N/A   Overcast
3:53 AM 72.0 °F - 69.1 °F 91% 30.05 in 9.0 mi Calm Calm - N/A   Mostly Cloudy
4:53 AM 71.1 °F - 68.0 °F 90% 30.04 in 6.0 mi Calm Calm - N/A   Clear
5:53 AM 70.0 °F - 68.0 °F 93% 30.06 in 5.0 mi Calm Calm - N/A   Clear
6:06 AM 69.8 °F - 68.0 °F 94% 30.07 in 1.5 mi Calm Calm - N/A   Clear
6:18 AM 69.8 °F - 66.2 °F 88% 30.07 in 3.0 mi Calm Calm - N/A   Clear
7:53 AM 73.9 °F - 70.0 °F 87% 30.08 in 10.0 mi Calm Calm - N/A   Partly Cloudy
8:53 AM 79.0 °F - 71.1 °F 77% 30.08 in 10.0 mi NE 3.5 mph - N/A   Scattered Clouds
9:53 AM 82.9 °F 87.5 °F 71.1 °F 67% 30.08 in 10.0 mi NE 3.5 mph - N/A   Clear
10:53 AM 86.0 °F 91.5 °F 71.1 °F 61% 30.07 in 10.0 mi SE 6.9 mph - N/A   Partly Cloudy
11:53 AM 87.1 °F 92.0 °F 70.0 °F 57% 30.06 in 10.0 mi ESE 6.9 mph - N/A   Scattered Clouds
12:53 PM 86.0 °F 90.1 °F 69.1 °F 57% 30.04 in 10.0 mi SSE 6.9 mph - N/A   Mostly Cloudy
1:53 PM 87.1 °F 91.3 °F 69.1 °F 55% 30.01 in 10.0 mi Calm Calm - N/A   Mostly Cloudy
2:53 PM 87.1 °F 90.6 °F 68.0 °F 53% 29.99 in 10.0 mi ESE 5.8 mph - N/A   Partly Cloudy
3:53 PM 88.0 °F 91.4 °F 68.0 °F 51% 29.96 in 10.0 mi Calm Calm - N/A   Scattered Clouds
4:03 PM 89.6 °F 94.7 °F 69.8 °F 52% 29.98 in 10.0 mi Variable 4.6 mph - N/A Thunderstorm Scattered Clouds
4:19 PM 82.4 °F 86.3 °F 69.8 °F 66% 30.00 in 10.0 mi SSW 18.4 mph 26.5 mph N/A Thunderstorm Mostly Cloudy
4:28 PM 75.2 °F - 71.6 °F 89% 30.01 in 1.5 mi SSW 19.6 mph 28.8 mph 0.07 in Rain , Thunderstorm Heavy Thunderstorms and Rain
4:31 PM 73.4 °F - 71.6 °F 94% 30.01 in 1.0 mi SSW 19.6 mph 28.8 mph 0.11 in Rain , Thunderstorm Heavy Thunderstorms and Rain
4:38 PM 73.4 °F - 69.8 °F 88% 30.00 in 0.5 mi SSW 28.8 mph 35.7 mph 0.28 in Fog , Rain , Thunderstorm Heavy Thunderstorms and Rain
4:45 PM 71.6 °F - 69.8 °F 94% 30.01 in 0.5 mi South 23.0 mph 35.7 mph 0.52 in Fog , Rain , Thunderstorm Heavy Thunderstorms and Rain
4:53 PM 73.0 °F - 70.0 °F 90% 30.01 in 0.5 mi SW 10.4 mph 29.9 mph 0.75 in Fog , Rain , Thunderstorm Heavy Thunderstorms and Rain
4:59 PM 73.4 °F - 69.8 °F 88% 30.01 in 1.0 mi WSW 9.2 mph - 0.04 in Rain Heavy Rain
5:07 PM 73.4 °F - 69.8 °F 88% 30.00 in 2.0 mi WSW 5.8 mph - 0.07 in Rain Heavy Rain
5:17 PM 73.4 °F - 69.8 °F 88% 30.00 in 6.0 mi Calm Calm - 0.07 in Rain Light Rain
5:53 PM 73.9 °F - 71.1 °F 91% 29.98 in 5.0 mi Calm Calm - 0.11 in Rain Light Rain
6:53 PM 73.9 °F - 72.0 °F 93% 29.99 in 7.0 mi Calm Calm - 0.00 in   Scattered Clouds
7:53 PM 73.0 °F - 71.1 °F 93% 30.01 in 8.0 mi Calm Calm - N/A   Partly Cloudy
8:53 PM 73.0 °F - 71.1 °F 93% 30.02 in 9.0 mi Calm Calm - N/A   Scattered Clouds
9:53 PM 73.0 °F - 71.1 °F 93% 30.03 in 9.0 mi Calm Calm - N/A   Clear
10:53 PM 73.0 °F - 71.1 °F 93% 30.01 in 9.0 mi Calm Calm - N/A   Clear
11:50 PM 71.6 °F - 69.8 °F 94% 30.02 in 3.0 mi Calm Calm - N/A   Clear
11:53 PM 72.0 °F - 70.0 °F 93% 30.01 in 4.0 mi Calm Calm - N/A   Clear